Weather History for Jackson, KY

Change the Weather History Date:

Thursday, May 10, 2012

  Actual Average Record
Temperature  
Mean Temperature 57 °F 63 °F  
Max Temperature 66 °F 73 °F 86 °F (1993)
Min Temperature 48 °F 53 °F 38 °F (2010)
Degree Days  
Heating Degree Days 8 4  
Month to date heating degree days 10 44  
Since 1 July heating degree days 3311 4165  
Cooling Degree Days 0 2  
Month to date cooling degree days 54 20  
Year to date cooling degree days 144 66  
Growing Degree Days 6 (Base 50)    
Moisture  
Dew Point 41 °F    
Average Humidity 60    
Maximum Humidity 86    
Minimum Humidity 34    
Precipitation  
Precipitation 0.00 in 0.17 in 1.32 in (1993)
Month to date precipitation 2.92 1.58  
Year to date precipitation 18.42 16.89  
Snow  
Snow 0.00 in 0.00 in - ()
Month to date snowfall 0.0 0.0  
Since 1 July snowfall 14.2 23.5  
Snow Depth 0.00 in    
Sea Level Pressure  
Sea Level Pressure 29.93 in    
Wind  
Wind Speed 4 mph (NW)    
Max Wind Speed 9 mph    
Max Gust Speed 15 mph    
Visibility 10 miles    
Events      
T = Trace of Precipitation, MM = Missing Value Source: NWS Daily Summary

Daily Weather History Graph

Daily Weather History Graph

Search for Another Location

Airport:

Trip Planner

Search our weather history database for the weather conditions in past years. The results will help you decide how hot, cold, wet, or windy it might be!

Date:

Astronomy

May. 10, 2012 Rise Set
Actual Time 6:27 AM EDT 8:31 PM EDT
Civil Twilight 5:58 AM EDT 9:00 PM EDT
Nautical Twilight 5:23 AM EDT 9:36 PM EDT
Astronomical Twilight 4:45 AM EDT 10:14 PM EDT
Moon 12:29 AM EDT (5/10) 10:51 AM EDT (5/10)
Length of Visible Light 15h 01m
Length of Day
14h 04m
Waning Gibbous, 73% of the Moon is Illuminated
May 10
Waning Gibbous
May 12
Last Quarter
May 20
New
May 28
First Quarter
Jun 4
Full

Hourly Weather History & Observations

Time (EDT) Temp. Dew Point Humidity Pressure Visibility Wind Dir Wind Speed Gust Speed Precip Events Conditions
12:53 AM 55.9 °F 43.0 °F 62% 29.85 in 10.0 mi NW 4.6 mph - N/A   Clear
1:53 AM 54.0 °F 43.0 °F 66% 29.84 in 10.0 mi NW 4.6 mph - N/A   Clear
2:53 AM 52.0 °F 44.1 °F 74% 29.84 in 10.0 mi WNW 5.8 mph - N/A   Clear
3:53 AM 51.1 °F 44.1 °F 77% 29.86 in 10.0 mi WNW 4.6 mph - N/A   Clear
4:53 AM 50.0 °F 44.1 °F 80% 29.86 in 10.0 mi WNW 3.5 mph - N/A   Clear
5:53 AM 48.9 °F 44.1 °F 83% 29.86 in 10.0 mi WNW 6.9 mph - N/A   Clear
6:53 AM 48.0 °F 44.1 °F 86% 29.88 in 10.0 mi NW 4.6 mph - N/A   Clear
7:53 AM 50.0 °F 44.1 °F 80% 29.91 in 10.0 mi NW 4.6 mph - N/A   Clear
8:53 AM 51.1 °F 45.0 °F 80% 29.93 in 10.0 mi NW 4.6 mph - N/A   Clear
9:53 AM 55.0 °F 45.0 °F 69% 29.94 in 10.0 mi Calm Calm - N/A   Clear
10:53 AM 55.9 °F 43.0 °F 62% 29.95 in 10.0 mi Variable 5.8 mph - N/A   Scattered Clouds
11:53 AM 59.0 °F 41.0 °F 51% 29.96 in 10.0 mi Variable 3.5 mph - N/A   Partly Cloudy
12:53 PM 60.1 °F 41.0 °F 49% 29.95 in 10.0 mi Variable 4.6 mph - N/A   Mostly Cloudy
1:53 PM 62.1 °F 41.0 °F 46% 29.94 in 10.0 mi Variable 4.6 mph - N/A   Mostly Cloudy
2:53 PM 64.0 °F 39.9 °F 41% 29.94 in 10.0 mi Variable 3.5 mph - N/A   Scattered Clouds
3:53 PM 64.9 °F 37.0 °F 36% 29.93 in 10.0 mi Variable 3.5 mph - N/A   Scattered Clouds
4:53 PM 64.0 °F 37.9 °F 38% 29.94 in 10.0 mi Variable 6.9 mph - N/A   Mostly Cloudy
5:53 PM 64.0 °F 35.1 °F 34% 29.95 in 10.0 mi Variable 6.9 mph - N/A   Partly Cloudy
6:53 PM 62.1 °F 36.0 °F 38% 29.96 in 10.0 mi North 5.8 mph - N/A   Partly Cloudy
7:53 PM 62.1 °F 37.0 °F 39% 29.97 in 10.0 mi Calm Calm - N/A   Overcast
8:53 PM 59.0 °F 37.0 °F 44% 29.99 in 10.0 mi Calm Calm - N/A   Clear
9:53 PM 57.9 °F 37.0 °F 46% 30.01 in 10.0 mi Calm Calm - N/A   Clear
10:53 PM 55.9 °F 37.0 °F 49% 30.03 in 10.0 mi Calm Calm - N/A   Clear
11:53 PM 54.0 °F 37.9 °F 55% 30.04 in 10.0 mi Calm Calm - N/A   Clear